Back to catalog

CZ-3C DEB

AliveGTO
NORAD 39600·DEBRIS·🇨🇳 China

Launched Oct 31, 2010 from Xichang Satellite Launch Center

Loading…

TLE

StaleSource: Space-Track

Epoch: Sep 12, 2026, 07:12 UTC

1 39600U 10057X   26255.30065440 -.00000152  00000-0  18087-3 0  9999
2 39600  20.2240 300.3736 7222255  97.8741 341.8102  2.25364624105204

Track CZ-3C DEB in real time with AllMySat

Download on the App Store